COSMOS 2251 DEB, 34434

Orbit data source: Space-Track

COSMOS 2251 DEB, 34434 is space debris in LEO originally from a launch on Wed, 16 Jun 1993 UTC launched from the Plesetsk Missile And Space Complex (PKMTR). The debris from Iridium 33, an American commercial communications satellite, has been tracked extensively since its accidental collision with the defunct Russian satellite Cosmos 2251 in 2009. This event, occurring at high speed in low Earth orbit (LEO), generated thousands of pieces of space debris, significantly increasing the risk of further collisions. The Iridium 33 debris cloud has impacted space traffic management and orbital debris mitigation strategies, making it a subject of ongoing study in space situational awareness.

Loading next visibility...
Identifier
34434, 1993-036SB
Orbit
LEO
Country
Flag of CISCIS
Related business
Manufacturer
Unknown
Mission
Spacecraft
Bus & Motor
Unknown
Mass
Unknown
Launch date (UTC)
1993-06-16 (33 years ago)
Launch vehicle
Unknown
Launch site
Plesetsk Missile And Space Complex (PKMTR)
Object type
Payload
Rocket body
Debris
Shape & HBR
Unknown shape, 0.1 m
Radar Cross Section
Medium (>0.1 m² and <1 m²)

Expand to show TLE details & history
Last TLE update: 22 hours ago

TLE from 22 hours ago
0 COSMOS 2251 DEB
1 34434U 93036SB  26207.53080517  .00002649  00000-0  15207-2 0  9993
2 34434  74.0584 345.3674 0282004  68.7067  46.7772 13.91668657871056
Epoch: 2026-07-26T12:44Z
TLE epoch observation values (Epoch: 2026-07-26T12:44:21.566Z)
Latitude
58.2978°
Longitude
2.66387°
Altitude
794.416 km
Speed
7.532 km/s
True Right ascension
09h 11m 55s
True Declination
58° 08' 41"
Sunlit
Object was in daylight at epoch
Visualization orbit readout
Latitude
Unknown
Longitude
Unknown
Altitude
Unknown
Speed
Unknown
Apparent Right ascension
Unknown
Apparent Declination
Unknown
Sunlit
N/A
Visualization observer readout
Local Sidereal Time
00:03:09
Azimuth
Unknown
Elevation
Unknown
Doppler factor
Unknown
Orbital elements
Apogee altitude
1,126.281 km
Perigee altitude
714.634 km
Semi-major axis
7,298.595 km
Eccentricity
0.0282
Inclination
74.0584°
RAAN
345.3674°
Arg. of periapsis
68.7067°
True anomaly
49.18948°
Mean anomaly
46.7772°
Eccentric anomaly
47.97752°
Mean motion
3.48084 °/min
Orbital period
103.42 mins
BSTAR
0.0015207
Loading maneuver chart data...
Computing Atmospheric mass density...

Documentation

Showing up to 5 results
|